Total_Precipitation_Accumulation
1.16 1.23 1.29 1.39 1.47 1.54 1.54 1.54 1.53 1.52 1.55 1.57 1.64 1.68 1.70 1.75 1.92 2.03 1.93 2.14 2.22 2.24 2.04 1.97 1.91 1.89 1.89 1.74 1.75 1.86 1.94 2.16 2.12 1.69 1.61 1.74 1.84 1.76 1.84 1.78 1.71 1.74 1.57
1.13 1.30 1.38 1.50 1.54 1.49 1.47 1.66 1.70 1.68 1.67 1.67 1.73 1.83 1.81 1.84 1.95 1.91 1.78 1.89 2.04 2.21 2.40 2.48 2.23 2.15 2.13 1.96 1.93 1.89 1.91 2.10 2.12 1.98 1.88 1.93 1.96 1.89 1.87 1.72 1.47 1.39 1.43
1.07 1.24 1.45 1.51 1.57 1.65 1.76 1.91 2.01 1.95 1.91 1.94 1.98 1.94 1.95 1.99 1.97 1.88 1.88 1.92 2.00 2.07 2.29 2.49 2.46 2.55 2.32 2.26 2.15 2.03 1.97 1.94 2.09 1.99 1.86 2.06 2.07 2.04 1.95 1.63 1.51 1.51 1.35
1.34 1.47 1.56 1.74 1.86 1.90 1.89 2.00 2.03 2.05 2.09 2.10 2.14 2.08 2.05 2.07 2.06 2.03 2.01 2.00 2.06 2.04 2.07 2.15 2.26 2.52 2.50 2.49 2.29 2.25 2.25 2.23 2.30 2.20 2.09 2.20 2.38 2.41 2.26 1.88 1.73 1.64 1.50
1.70 1.77 1.79 1.85 1.95 2.08 2.23 2.26 2.26 2.26 2.21 2.33 2.30 2.21 2.19 2.20 2.04 2.14 2.32 2.30 2.36 2.18 2.10 2.04 2.01 2.23 2.31 2.30 2.06 2.15 2.30 2.35 2.38 2.34 2.31 2.38 2.44 2.56 2.26 2.01 1.84 1.79 1.71
2.17 2.29 2.41 2.47 2.52 2.58 2.62 2.63 2.67 2.63 2.56 2.46 2.36 2.37 2.36 2.16 2.28 2.34 2.25 2.29 2.45 2.44 2.31 2.22 2.09 2.03 2.02 2.06 2.08 2.11 2.18 2.18 2.22 2.27 2.23 2.27 2.33 2.44 2.55 2.39 2.16 1.97 1.78
2.30 2.41 2.55 2.64 2.75 2.86 2.89 2.87 2.75 2.68 2.60 2.48 2.48 2.52 2.47 2.50 2.45 2.22 2.06 2.06 2.13 2.22 2.27 2.23 1.97 1.83 1.99 1.91 2.06 2.07 1.93 1.87 1.86 1.95 1.98 2.01 2.40 2.68 2.93 2.64 2.42 2.21 1.93
2.41 2.48 2.54 2.60 2.69 2.82 2.97 2.91 2.74 2.66 2.62 2.57 2.53 2.42 2.35 2.27 2.26 2.03 2.00 1.91 1.88 1.83 1.92 2.00 1.94 1.85 1.86 1.93 1.88 1.67 1.53 1.52 1.54 1.47 1.52 1.74 2.12 2.62 2.90 2.89 2.83 2.59 2.28
2.15 2.31 2.30 2.42 2.62 2.72 2.75 2.75 2.78 2.73 2.55 2.41 2.29 2.23 2.17 2.22 2.37 2.13 2.01 1.85 1.86 1.73 1.72 1.71 1.72 1.61 1.69 1.75 1.67 1.48 1.36 1.31 1.33 1.35 1.34 1.49 1.76 2.09 2.47 2.64 2.55 2.36 2.01
2.14 2.32 2.46 2.55 2.69 2.74 2.78 2.86 2.86 2.80 2.76 2.71 2.56 2.42 2.32 2.28 2.42 2.14 1.98 1.81 1.84 1.81 1.80 1.79 1.85 1.64 1.54 1.45 1.38 1.39 1.22 1.13 1.23 1.22 1.19 1.22 1.32 1.59 1.99 2.09 2.09 2.12 1.91
2.18 2.25 2.36 2.50 2.66 2.86 3.04 2.97 2.93 2.86 2.75 2.57 2.39 2.26 2.21 2.19 2.16 1.93 1.79 1.62 1.63 1.68 1.60 1.53 1.59 1.61 1.39 1.22 1.19 1.17 1.10 1.11 1.16 1.12 1.05 1.03 1.15 1.28 1.46 1.75 1.88 1.86 1.77
2.24 2.31 2.36 2.51 2.55 2.64 2.78 2.73 2.66 2.64 2.61 2.55 2.49 2.42 2.34 2.19 1.96 1.73 1.57 1.47 1.49 1.52 1.62 1.63 1.68 1.70 1.44 1.26 1.11 1.00 1.01 0.97 0.96 1.01 0.98 0.95 1.01 1.10 1.31 1.58 1.85 1.90 1.78
2.21 2.33 2.47 2.54 2.57 2.68 2.80 2.80 2.69 2.58 2.51 2.40 2.31 2.14 2.12 2.15 2.06 1.81 1.56 1.45 1.45 1.41 1.61 1.90 1.91 1.83 1.60 1.32 1.22 1.19 1.07 0.93 0.94 0.97 0.95 0.91 0.94 1.08 1.34 1.64 1.87 2.04 1.98
2.16 2.20 2.34 2.46 2.58 2.71 2.73 2.62 2.47 2.29 2.20 2.13 2.03 1.92 1.91 1.96 1.87 1.79 1.67 1.57 1.54 1.47 1.55 1.80 1.93 1.93 1.81 1.61 1.51 1.40 1.17 1.06 1.11 1.09 1.11 1.16 1.24 1.37 1.52 1.65 1.84 1.99 2.04
2.12 2.17 2.16 2.18 2.27 2.38 2.43 2.39 2.26 2.13 2.02 1.95 1.83 1.81 1.79 1.78 1.79 1.78 1.62 1.51 1.46 1.50 1.63 1.84 1.98 2.09 2.09 2.02 1.89 1.78 1.63 1.45 1.31 1.26 1.31 1.32 1.37 1.46 1.53 1.67 1.89 1.98 1.91
2.16 2.04 1.95 1.87 1.86 1.89 1.89 1.95 2.07 1.96 1.95 1.81 1.69 1.61 1.57 1.60 1.61 1.55 1.43 1.35 1.39 1.48 1.55 1.69 1.93 2.11 2.18 2.26 2.27 2.15 1.93 1.72 1.58 1.54 1.50 1.47 1.51 1.51 1.56 1.72 1.94 2.04 1.91
2.07 1.93 1.82 1.76 1.76 1.71 1.67 1.68 1.79 1.83 1.79 1.71 1.68 1.55 1.41 1.44 1.39 1.32 1.30 1.29 1.31 1.35 1.40 1.53 1.64 1.75 1.93 2.13 2.22 2.20 2.00 1.86 1.88 1.85 1.75 1.72 1.74 1.74 1.73 1.82 2.00 2.12 2.07
1.92 1.97 1.83 1.71 1.76 1.76 1.73 1.70 1.72 1.76 1.75 1.67 1.65 1.60 1.36 1.22 1.18 1.19 1.22 1.18 1.08 1.09 1.18 1.33 1.48 1.62 1.77 2.02 2.14 2.17 2.13 2.05 2.05 2.09 2.04 2.00 1.99 1.93 1.85 1.81 1.92 2.02 2.04
1.74 1.78 1.79 1.78 1.75 1.76 1.77 1.69 1.63 1.61 1.63 1.55 1.49 1.57 1.50 1.31 1.21 1.22 1.23 1.12 1.04 1.03 1.12 1.17 1.23 1.39 1.56 1.78 2.01 2.16 2.17 2.08 2.01 2.06 2.04 1.96 1.96 1.97 1.87 1.79 1.85 2.01 2.08
1.65 1.80 1.73 1.73 1.73 1.70 1.74 1.75 1.70 1.69 1.66 1.57 1.49 1.50 1.51 1.38 1.26 1.33 1.39 1.37 1.28 1.23 1.23 1.23 1.31 1.43 1.58 1.79 1.98 2.07 2.09 2.07 2.03 2.03 2.00 1.93 1.90 1.89 1.76 1.70 1.72 1.80 1.85
1.51 1.57 1.65 1.52 1.54 1.61 1.59 1.63 1.66 1.67 1.63 1.55 1.46 1.46 1.43 1.30 1.36 1.45 1.55 1.58 1.48 1.38 1.33 1.32 1.35 1.43 1.60 1.81 1.94 2.03 2.04 2.06 2.07 2.05 2.00 1.92 1.88 1.89 1.84 1.79 1.76 1.79 1.81
1.50 1.41 1.41 1.44 1.56 1.61 1.65 1.67 1.71 1.68 1.64 1.62 1.61 1.62 1.57 1.35 1.42 1.49 1.53 1.59 1.61 1.58 1.54 1.49 1.46 1.50 1.58 1.71 1.87 1.98 1.98 1.96 1.97 2.00 1.97 1.92 1.91 1.92 1.96 1.95 1.90 1.88 1.90
1.57 1.53 1.48 1.47 1.58 1.71 1.73 1.76 1.79 1.77 1.74 1.73 1.69 1.65 1.63 1.55 1.57 1.65 1.69 1.72 1.71 1.67 1.61 1.57 1.54 1.56 1.59 1.61 1.69 1.80 1.84 1.83 1.78 1.79 1.86 1.83 1.78 1.78 1.83 1.86 1.85 1.87 1.84
1.41 1.49 1.50 1.49 1.53 1.56 1.59 1.61 1.61 1.59 1.60 1.61 1.64 1.70 1.73 1.74 1.78 1.81 1.75 1.69 1.62 1.58 1.57 1.54 1.51 1.51 1.54 1.58 1.58 1.55 1.58 1.62 1.56 1.55 1.60 1.65 1.67 1.67 1.70 1.72 1.78 1.84 1.90
1.25 1.40 1.47 1.45 1.42 1.45 1.44 1.37 1.36 1.42 1.53 1.63 1.66 1.69 1.75 1.77 1.76 1.70 1.61 1.52 1.45 1.47 1.49 1.46 1.44 1.37 1.34 1.35 1.34 1.33 1.46 1.49 1.44 1.40 1.39 1.44 1.47 1.53 1.58 1.60 1.67 1.78 1.93
1.23 1.34 1.40 1.40 1.40 1.43 1.46 1.41 1.34 1.38 1.48 1.53 1.57 1.56 1.57 1.58 1.59 1.54 1.46 1.41 1.37 1.35 1.36 1.37 1.32 1.21 1.17 1.16 1.15 1.17 1.16 1.10 1.16 1.27 1.27 1.29 1.36 1.45 1.50 1.52 1.56 1.68 1.80